Tracking 35331 objects as of 14-Sep-2026
HD Live streaming from Space Station
objects crossing your sky now

STARLINK-38394

Track STARLINK-38394 now!
10-day predictions
STARLINK-38394 is classified as:


NORAD ID: 100524
Int'l Code: 2026-197Y
Launch date: August 26, 2026
Source: United States (US)
Launch site: AIR FORCE WESTERN TEST RANGE (AFWTR)
Your satellite tracking list
Your tracking list is empty




NASA's NSSDC Master Catalog

Two Line Element Set (TLE):
1 A0524U 26197Y   26257.13152275  .00101613  00000-0  48908-3 0  9998
2 A0524  69.9975 139.8166 0003377 267.6448  92.4368 15.82197963  2981
Source of the keplerian elements: AFSPC